FLOCK 4P 2

导读

FLOCK 4P 2是美国Planet Labs公司Flock 4P星群中的一颗小型遥感卫星,于2019年11月27日发射升空。它属于立方体卫星,配备高分辨率光学成像载荷,主要对地进行遥感观测,提供地球表面影像数据,服务于农业监测、城市规划、灾害评估、环境变化跟踪等商业与科研领域,是Planet公司全球 daily 观测星座的组成部分。

基本信息
目录编号:
44813
目录名称:
FLOCK 4P 2
国际标识:
2019-081K
轨道中心:
EARTH
卫星名称:
FLOCK 4P 2
卫星全名:
--
卫星状态:
已陨落 最后检测时间 2023-09-19
发射日期:
2019-11-27 UTC
国别 :
美国 (US)
星等 :
--
轨道信息
数据来源 国际轨道数据
星历时间: 2023-09-17T15:13:56+0800
轨道信息已过期1031天
半长轴: 6527.461km
偏心率: 0.0011238
轨道倾角: 97.320°
近地点辐角 265.288°
升交点赤经 336.544°
平近点角 94.714°
近地点: 141.99km
远地点: 156.662km
周期: 87.473分钟
每日圈数: 16.462143
详细信息
使用方式:
暂无